Regional Weather Roundup
Issued by NWS Midland/Odessa, TX

Home | Current Version | Previous Version | Text Only | Print | Product List | Glossary On
Versions: 1 2 3 4 5 6 7 8 9 10 11 12 13 14 15 16 17 18 19 20 21 22 23 24 25 26 27 28 29 30 31 32 33 34 35 36 37 38 39 40 41 42 43 44 45 46 47 48 49 50
000
ASUS44 KMAF 010110
RWRMAF
MIDLAND AREA WEATHER ROUNDUP
NATIONAL WEATHER SERVICE MIDLAND TX
800 PM CDT TUE SEP 30 2014

...IN SOUTHWEST TEXAS AND SOUTHEAST NEW MEXICO...

CITY           SKY/WX    TMP DP  RH WIND       PRES   REMARKS
ALPINE         CLEAR     74  56  53 SW8       29.96R
ANDREWS        FAIR      80  54  41 SW5       29.80S
ARTESIA        NOT AVBL
BIG SPRING     PTCLDY    84  58  41 S12       29.78R
CARLSBAD       CLEAR     75  55  49 W6        29.79R
DRYDEN           N/A     84  64  50 E8        29.78R
FORT STOCKTON  PTCLDY    79  60  52 SE15      29.81R
GUAD PASS      CLEAR     71  45  39 W21       29.96R
HOBBS          CLEAR     73  57  56 CALM      29.83S
MARFA          CLEAR     75  54  46 W3        29.95S
MIDLAND AIRPK  CLEAR     84  55  36 W6        29.78S
MIDLAND INTL   CLEAR     84  55  36 SW6       29.78R
ODESSA         CLEAR     82  56  40 SW5       29.80R
PECOS          CLEAR     80  59  49 SE8       29.76R
PRESIDIO       FAIR      86  60  41 E5        29.77S
SEMINOLE       CLEAR     76  55  47 W5        29.82R
SNYDER         CLEAR     80  63  55 SE8       29.76S
WINK           PTCLDY    83  61  47 S8        29.76R
$$
...OTHER STATIONS IN TEXAS...

CITY           SKY/WX    TMP DP  RH WIND       PRES   REMARKS
ABILENE        CLEAR     84  55  36 S9        29.75S
AMARILLO       CLEAR     68  44  42 SW8       29.79R
AUSTIN         PTCLDY    83  67  58 SE6       29.77R
BROWNSVILLE    CLEAR     80  78  94 SE9       29.76R
CORPUS CHRISTI PTCLDY    80  76  87 E9        29.76S
DALLAS FTW     PTCLDY    85  64  49 SE8       29.75S
DEL RIO        CLEAR     84  66  54 SE8       29.74R
EL PASO        PTCLDY    83  47  28 W12       29.84R
HOUSTON INT    MOCLDY    80  73  79 S8        29.79S
LUBBOCK        PTCLDY    78  47  33 W14       29.78S
SAN ANGELO     CLEAR     84  59  42 S7        29.76R
SAN ANTONIO    PTCLDY    82  66  58 SE9       29.78R
WACO           CLEAR     83  65  54 S8        29.77R
WICHITA FALLS  NOT AVBL
$$
...OTHER LOCATIONS IN NEW MEXICO...

CITY           SKY/WX    TMP DP  RH WIND       PRES   REMARKS
ALAMAGORDO     PTCLDY    68  48  49 S8        29.87S
ALBUQUERQUE    PTCLDY    72  31  22 N10       29.92R
CANNON AFB     CLEAR     67  47  49 SW8       29.84R
CLOVIS           N/A     66  46  48 SW8       29.85F
HOLLOMAN AFB   PTCLDY    77  36  22 SW8       29.85S
ROSWELL        CLEAR     77  54  44 NE3       29.80R
RUIDOSO        CLEAR     63  32  31 SW12      30.03S
SANTA FE       CLEAR     63  27  25 W9        29.96R
TRUTH OR CONSE CLEAR     75  32  20 S8        29.87R
TUCUMCARI      CLEAR     70  38  31 SW10      29.78R
$$


USA.gov is the U.S. government's official web portal to all federal, state and local government web resources and services.